Location: Sinlabajos
(41.0765°N, 4.8324°W)
Time: 15:01:09
(UTC+00:00)

Daily predictions for brighter satellites

Satellite Brightness Start Highest point End
(mag) Time Altitude Azimuth Time Altitude Azimuth Time Altitude Azimuth
Cosmos 371 Rocket 3.6 19:43:22 10° NNW 19:48:11 70° WSW 19:52:57 10° S
Okean 1 Rocket 4.5 19:48:10 10° SE 19:51:19 20° E 19:54:29 10° NE
Cosmos 1980 Rocket 4.2 19:48:44 10° NNE 19:51:43 14° NE 19:54:41 10° ENE
ARIANE 6 FM1 Upper Stage 2.5 19:49:21 10° NW 19:53:21 86° NE 19:57:19 10° SE
Cosmos 2084 3.9 19:50:14 10° SW 19:54:20 65° NW 19:58:27 10° NNE
SL-24 R/B 4.2 19:51:50 10° NNE 19:56:18 61° E 20:00:32 10° S
CZ-4 R/B 1.5 19:54:27 10° SE 19:57:54 44° ENE 20:01:22 10° N
CZ-4B R/B 4.0 19:57:02 10° SSE 20:00:56 58° ENE 20:04:53 10° N
ASTEX 1 3.6 19:59:07 10° SSE 20:03:53 52° E 20:08:42 10° N
SPOT 5 2.6 19:59:49 10° SSE 20:04:06 87° WSW 20:08:27 10° NNW
Cosmos 1862 3.6 20:01:42 10° NNW 20:05:12 59° W 20:08:41 10° S
GEOS 3 Rocket 3.9 19:59:57 10° SSE 20:05:14 75° SW 20:10:38 10° NW
CZ-4B DEB 4.5 20:00:11 10° SSE 20:05:31 54° ENE 20:10:53 10° N
Cosmos 2056 Rocket 3.6 20:01:08 10° SSW 20:06:31 84° ESE 20:11:56 10° NNE
Cosmos 1833 Rocket 2.6 20:01:55 10° SSW 20:07:28 70° ESE 20:13:04 10° NNE
CZ-4B R/B 3.9 20:02:41 10° SE 20:07:56 41° ENE 20:13:11 10° N
CSL-04 Rocket 3.8 20:02:57 10° SSE 20:08:29 89° E 20:13:59 10° NNW
Cosmos 1624 Rocket 4.0 20:04:21 10° SSW 20:09:30 86° ESE 20:14:42 10° NNE
Terra 2.3 20:07:42 10° SE 20:12:05 42° ENE 20:16:30 10° N
Sich 1 Rocket 4.4 20:10:16 10° SSE 20:14:01 29° E 20:17:49 10° NNE
ATLAS 5 CENTAUR R/B 4.2 20:15:50 10° WNW 20:19:14 19° WSW 20:23:04 10° SSW
Cosmos 2058 3.8 20:16:38 10° NNW 20:20:22 47° W 20:24:05 10° SSW
SJ 16-02 2.5 20:18:01 10° NNW 20:22:01 41° WSW 20:25:59 10° S
Resurs 01 Rocket 4.4 20:19:31 10° SW 20:22:17 17° W 20:25:05 10° NW
MetOp-B 4.3 20:17:25 10° SSE 20:22:37 55° ENE 20:27:51 10° N
PAYLOAD B 4.3 20:18:48 10° SSE 20:24:14 69° ENE 20:29:44 10° N
USA 229 DEB 4.2 20:19:29 10° NNW 20:27:03 65° NE 20:34:05 15° SE
USA 229 4.2 20:19:32 10° NNW 20:27:07 64° NE 20:34:07 15° SE
Cosmos 44 Rocket 3.7 20:23:25 10° S 20:28:06 41° ESE 20:32:54 10° NE
Cosmos 1743 4.4 20:27:10 10° NE 20:28:14 11° ENE 20:28:34 11° E
ISS -3.4 20:26:07 10° SSW 20:29:16 39° SE 20:32:25 10° ENE
Cosmos 1459 Rocket 4.2 20:23:40 10° SSE 20:29:44 53° E 20:35:43 10° NNE
SKYMED 3 4.3 20:28:54 10° NNE 20:32:48 59° E 20:36:42 10° S
Cosmos 2100 Rocket 4.0 20:27:10 10° S 20:33:14 63° E 20:39:26 10° NNE
ATLAS 2AS CENTAUR R/B 3.7 20:29:48 10° SW 20:36:34 51° NW 20:43:13 10° NNE
IRAS Rocket 4.4 20:31:11 10° S 20:36:37 72° WSW 20:42:07 10° NNW
Meteor 2-17 Rocket 4.5 20:30:43 10° N 20:36:50 86° W 20:42:53 10° S
ADEOS 3.6 20:32:34 13° SSE 20:37:09 65° ENE 20:42:20 10° N
SL-24 R/B 4.5 20:34:10 10° N 20:38:23 69° WNW 20:42:53 10° SSW
Spot 2 Rocket 4.0 20:36:58 18° SE 20:40:20 43° ENE 20:45:04 10° N
BREEZE-M DEB (TANK) 3.8 20:38:50 10° NW 20:41:41 47° NNE 20:47:10 14° ESE
Cosmos 2151 Rocket 3.7 20:37:25 10° SSW 20:41:46 74° W 20:46:08 10° N
SL-4 R/B 2.2 20:38:39 10° NW 20:42:26 54° NNE 20:44:44 22° ESE
Cosmos 2082 Rocket 3.1 20:40:45 17° SE 20:43:45 27° ESE 20:48:25 10° NE
Okean 2 Rocket 3.0 20:39:41 10° S 20:44:08 86° E 20:48:39 10° N
Cosmos 1536 Rocket 3.7 20:49:48 10° NNW 20:54:08 71° W 20:57:49 14° S
Cosmos 1607 4.2 20:48:44 10° S 20:54:26 43° ESE 21:00:14 10° NE
IRS-1A Rocket 4.3 20:51:01 17° SSE 20:55:36 81° ENE 21:01:29 10° NNW
Cosmos 2228 3.8 20:55:35 27° ESE 20:56:21 29° E 20:59:54 10° NNE
Timation 1 Rocket 4.3 20:51:52 10° SSW 20:57:52 90° ENE 21:03:55 10° NNE
USA 186 1.9 20:58:27 37° ENE 20:58:27 37° ENE 21:00:54 10° N
Cosmos 292 Rocket 3.7 20:54:09 10° NNW 20:58:56 79° ENE 21:01:33 26° SSE
Okean O Rocket 1.7 20:57:28 28° SE 20:59:34 59° ENE 21:03:48 10° N
DELTA 2 R/B (1) 4.0 20:55:14 10° SW 21:00:21 39° SSE 21:03:11 23° ESE
ERS-1 Rocket 3.7 20:59:16 10° S 21:04:07 52° W 21:09:01 10° NNW
Helios 1A Rocket 4.5 21:01:33 10° NNW 21:04:14 26° WNW 21:06:55 10° SW
CZ-4C R/B 1.6 21:01:28 10° SW 21:05:24 77° NW 21:10:22 10° NNE
Cosmos 1725 Rocket 4.0 21:00:02 12° S 21:05:52 70° E 21:12:06 10° NNE
Cosmos 1452 Rocket 3.4 21:01:08 10° SSW 21:06:19 75° ESE 21:11:33 10° NNE
Cosmos 1697 Rocket 2.8 21:02:48 10° NNW 21:08:25 75° WSW 21:11:51 24° SSE
Cosmos 1741 Rocket 4.1 21:05:20 10° NNW 21:10:38 64° ENE 21:13:00 32° SE
SL-16 R/B 4.3 21:09:17 10° NNE 21:12:01 13° NE 21:14:46 10° ENE
Okean-O 2.5 21:10:27 32° SSE 21:12:26 80° ENE 21:16:49 10° N
Cosmos 1331 Rocket 4.4 21:10:22 10° SSW 21:15:33 63° WNW 21:20:45 10° NNE
ATLAS 3B R/B 2.9 21:08:51 10° NW 21:16:38 88° NE 21:20:47 29° SE
CZ-4B R/B 4.0 21:19:07 32° ESE 21:20:21 38° ENE 21:24:45 10° N
Cosmos 968 Rocket 3.8 21:15:58 10° NNW 21:21:08 61° WSW 21:24:03 25° S
USA 245 4.5 21:18:48 32° SE 21:21:23 59° ENE 21:27:09 10° N
Cosmos 1892 Rocket 3.4 21:17:51 10° N 21:22:12 77° E 21:23:28 45° SSE
Cosmos 1455 Rocket 3.0 21:19:52 24° S 21:22:32 82° W 21:26:58 10° N
Cosmos 1302 Rocket 3.9 21:21:11 26° S 21:24:02 64° ESE 21:29:10 10° NNE
Cosmos 2016 Rocket 3.9 21:19:36 15° S 21:24:57 89° E 21:31:13 10° N
Cosmos 2333 Rocket 4.3 21:21:49 10° NNE 21:25:01 15° NE 21:27:39 11° ENE
BREEZE-M DEB (TANK) 4.3 21:23:56 10° WNW 21:27:48 43° SSW 21:32:22 26° SSE
CZ-4 R/B 4.1 21:31:08 10° WSW 21:32:09 11° W 21:33:09 10° WNW
Cosmos 2061 Rocket 4.0 21:29:50 32° SSE 21:32:46 65° E 21:38:56 10° NNE
CZ-4B R/B 2.8 21:33:11 51° NE 21:33:11 51° NE 21:36:10 10° N
Cosmos 1782 2.5 21:32:58 63° SW 21:33:25 77° W 21:36:56 10° N
Cosmos 1544 Rocket 4.5 21:35:33 32° ENE 21:35:33 32° ENE 21:38:55 10° NNE
Cosmos 724 4.4 21:29:01 10° SW 21:35:04 79° WNW 21:41:04 10° NNE
SPOT 3 Rocket 3.5 21:34:29 44° SE 21:36:02 69° ENE 21:41:10 10° N
NOSS 3-3 (A) 3.5 21:34:26 39° S 21:36:05 56° ESE 21:41:43 10° NE
Cosmos 1980 Rocket 2.1 21:30:53 10° NNW 21:36:37 82° ENE 21:38:33 43° SSE
BREEZE-M DEB (TANK) 2.9 21:31:15 10° SW 21:36:17 54° SSW 21:36:17 54° SSW
Cosmos 1850 Rocket 4.3 21:39:39 10° NNW 21:44:43 59° WSW 21:46:30 38° SSW
Terra 4.0 21:46:23 10° SW 21:49:45 20° W 21:53:09 10° NW
IRS-1C Rocket 4.0 21:51:54 55° SE 21:53:04 77° ENE 21:58:21 10° N
Milstar 3 4.0 21:46:49 10° WSW 21:53:19 33° S 21:54:31 31° S
CZ-2C R/B 4.2 21:55:17 22° N 21:55:17 22° N 21:56:27 10° N
Cosmos 1758 Rocket 4.0 21:49:44 10° N 21:53:42 46° ENE 21:53:42 46° ENE
Gbstr 26 Del rocket 3.1 21:55:57 10° NW 22:00:41 65° NNE 22:00:52 64° NE
Cosmos 1743 4.2 21:58:35 10° NW 22:00:44 24° WNW 22:00:44 24° WNW
Cosmos 2360 Rocket 4.1 21:58:45 10° N 22:02:21 17° NE 22:04:14 15° ENE
NOSS 3-3 (C) 3.4 22:02:52 56° S 22:03:57 77° ESE 22:09:51 10° NE
ISS -1.8 22:03:08 10° W 22:06:07 29° NNW 22:08:14 16° NNE
Geosat 3.8 22:06:59 10° NNE 22:12:00 82° ESE 22:12:24 75° S
Cosmos 2237 4.1 22:06:42 10° NNW 22:12:27 72° ENE 22:13:13 63° ESE
Ariane Rocket 3.0 22:12:25 61° SSW 22:13:05 70° WSW 22:18:08 10° NNW
USA 305 4.2 22:10:07 10° NNW 22:13:09 28° NNE 22:13:09 28° NNE
Meteor 2-9 4.5 22:10:39 10° N 22:16:06 76° E 22:16:32 71° ESE
SL-4 R/B 4.0 22:16:28 10° W 22:18:10 19° W 22:18:10 19° W
Cosmos 1602 Rocket 4.4 22:15:28 10° N 22:18:42 41° NE 22:18:42 41° NE
Cosmos 2219 Rocket 4.3 22:16:42 10° NNE 22:19:48 15° NE 22:21:47 12° ENE
Cosmos 1437 Rocket 4.3 22:21:47 27° NNE 22:21:47 27° NNE 22:23:32 10° NNE
Cosmos 2082 Rocket 3.2 22:22:24 11° SW 22:27:31 44° WNW 22:32:59 10° NNE
Cosmos 2369 3.6 22:22:07 10° NNW 22:27:49 76° WSW 22:28:18 70° SSW
Cosmos 2151 3.6 22:25:48 10° N 22:28:56 51° NNW 22:28:56 51° NNW
Cosmos 2322 Rocket 3.5 22:25:26 10° N 22:30:15 28° NE 22:31:03 27° ENE
Cosmos 1891 Rocket 4.5 22:31:35 57° SSW 22:32:54 77° W 22:39:01 10° N
Okean O Rocket 4.2 22:34:42 10° WSW 22:36:06 12° W 22:37:41 10° WNW
Cosmos 1626 Rocket 4.3 22:33:20 10° NNW 22:37:03 47° WNW 22:37:03 47° WNW
Meteor 1-5 Rocket 4.4 22:34:29 10° N 22:40:03 58° ENE 22:40:03 58° ENE
USA 234 3.1 22:35:48 10° NE 22:42:20 69° SE 22:42:49 67° SSE
Cosmos 2278 4.1 22:44:01 10° NNW 22:49:37 53° ENE 22:49:39 53° ENE
Helios 1A 4.4 22:46:34 10° NNE 22:48:44 32° N 22:48:44 32° N
COSMOS 2406 3.6 22:49:27 48° WSW 22:50:43 60° WNW 22:56:25 10° NNE
SL-16 R/B 2.2 22:51:22 10° NNW 22:56:47 76° NNE 22:56:47 76° NNE
Cosmos 1486 Rocket 4.4 22:56:18 10° NNW 23:00:50 55° NE 23:00:50 55° NE
Cosmos 2098 Rocket 3.8 23:02:09 59° NW 23:02:09 59° NW 23:06:25 10° N
Nadezhda 4 Rocket 3.8 22:56:41 10° N 23:02:50 90° E 23:02:51 89° SE
Cosmos 2333 Rocket 2.3 23:04:25 10° NNW 23:09:39 75° NNW 23:09:39 75° NNW
BREEZE-M DEB (TANK) 4.5 23:06:09 10° W 23:15:53 52° N 23:20:43 10° ENE
Cosmos 1980 Rocket 4.4 23:17:15 10° WNW 23:19:46 13° W 23:20:18 13° WSW
Cosmos 2195 Rocket 4.4 23:14:42 10° N 23:20:43 81° NE 23:20:43 81° NE
Cosmos 2026 Rocket 4.0 23:21:06 10° N 23:27:17 78° NE 23:27:17 78° NE
DNEPR-1 R/B 4.5 23:28:07 10° NNW 23:33:34 75° NNE 23:33:34 75° NNE
ALOS 2 4.1 23:43:55 35° N 23:43:55 35° N 23:46:30 10° N
ARIANE 5 R/B 4.1 23:44:33 35° NNW 23:44:33 35° NNW 23:47:10 10° NNW
Cosmos 2360 Rocket 2.6 23:41:21 10° NNW 23:45:58 60° NW 23:45:58 60° NW
